Location: ??????
(31.2056°N, 45.3906°E)
Time: 16:47:35
(UTC+00:00)

Cosmos 1610 Rocket - Pass Details

Date: 09 April 2020
Orbit: 952 x 1003 km, 82.9° (Epoch: 26 May)

Event Time Altitude Azimuth Distance (km) Brightness Sun altitude
Rises 16:34:00 0° 358° (N) 3,647 7.8 -15.5°
Reaches altitude 10° 16:36:33 10° 2° (N) 2,692 7.0 -16.0°
Maximum altitude 16:42:38 63° 83° (E) 1,058 4.4 -17.2°
Enters shadow 16:48:05 13° 163° (SSE) 2,457 6.2 -18.3°
